Miscellaneous Local Product
Issued by NWS North Platte, NE

Home | Current Version | Previous Version | Graphics & Text | Print | Product List | Glossary On
Versions: 1 2 3 4 5 6 7 8 9 10 11 12 13 14 15 16 17 18 19 20 21 22 23 24 25 26 27 28 29 30 31 32 33 34 35 36 37 38 39 40 41 42 43 44 45 46 47 48 49 50
000
AXUS43 KLBF 141310
MISLBF


WESTERN AND NORTH CENTRAL NEBRASKA HOURLY WEATHER ROUNDUP
NATIONAL WEATHER SERVICE NORTH PLATTE NE
800 AM CDT SUN SEP 14 2014

***STATIONS NOT REPORTING VARIABLES SUCH AS SKY/WEATHER OR
PRESSURE ARE PROVIDED BY THE NEBRASKA DEPARTMENT OF
ROADS...RAWS...AND APRS NETWORKS...AND ARE NOT UNDER
NATIONAL WEATHER SERVICE QUALITY CONTROL***

...OBSERVATIONS IN AND NEAR THE EASTERN PANHANDLE OF NEBRASKA...

CITY           SKY/WX    TMP DP  RH WIND       PRES   REMARKS
PINE RIDGE     CLOUDY    41  38  89 E6        30.15R
CHADRON        CLOUDY    40  38  93 N6        30.15R
ALLIANCE       CLEAR     41  38  89 CALM      30.12R
SIDNEY         FOG       45  43  93 NE5       30.12R VSB<1/4
WHITECLAY        N/A     40  34  78 CALM        N/A
RUSHVILLE        N/A     38  35  89 E15         N/A  WCI  29
CRESCENT LAKE    N/A     43  42  96 E6          N/A
LISCO            N/A     45  41  88 E5          N/A
BIG SPRINGS      N/A     41  40  95 CALM        N/A
$$

...OBSERVATIONS IN NORTH CENTRAL NEBRASKA...

CITY           SKY/WX    TMP DP  RH WIND       PRES   REMARKS
VALENTINE      MOCLDY    40  39  97 CALM      30.18S
THEDFORD       PTCLDY    43  42  95 CALM      30.17R
AINSWORTH      CLEAR     39  38  96 CALM      30.18S
O`NEILL        PTCLDY    41  41  99 CALM      30.19R
ORD            PTCLDY    38  37  97 CALM      30.18S
BROKEN BOW     PTCLDY    42  40  92 N6        30.16R
SPRINGVIEW       N/A     37  35  94 CALM        N/A
ROSE             N/A     44  43  97 NE5         N/A
NEWPORT          N/A     40  39  96 CALM        N/A
COMSTOCK         N/A     41  40  98 CALM        N/A
CHAMBERS         N/A     43  42  95 CALM        N/A
EWING            N/A     43  42  96 CALM        N/A
$$

...OBSERVATIONS IN SOUTHWEST NEBRASKA AND FAR NORTHEAST COLORADO...

CITY           SKY/WX    TMP DP  RH WIND       PRES   REMARKS
WRAY           FOG      N/A N/A N/A CALM      30.12R VSB<1/4
HOLYOKE        FOG       41  39  93 SE5       30.11R VSB<1/4
IMPERIAL       CLEAR     41  40  96 SE6       30.13R
OGALLALA       CLEAR     42  41  97 E3        30.14R
NORTH PLATTE   CLEAR     39  38  96 E6        30.15R WCI  35
MCCOOK         CLEAR     40  39  97 NE6       30.15R
LEXINGTON      PTCLDY    41  40  95 E5        30.17R
PAXTON           N/A     41  39  92 CALM        N/A
SUTHERLAND       N/A     35  33  94 CALM        N/A
BRADY            N/A     40  38  92 CALM        N/A
GOTHENBURG       N/A     40  37  89 E3          N/A
CALLAWAY         N/A     38  37  97 E3          N/A
$$

...SOME WEATHER OBSERVATIONS FROM AROUND THE REGION...

CITY           SKY/WX    TMP DP  RH WIND       PRES   REMARKS
DENVER         PTCLDY    53  35  50 W13       30.13R
LARAMIE        CLEAR     40  30  67 SW7       30.19R
CHEYENNE       CLEAR     44  34  67 W7        30.14R
SCOTTSBLUFF    CLOUDY    46  44  93 E6        30.11R
RAPID CITY     MOCLDY    35  32  88 NW5       30.18R WCI  31
PIERRE         PTCLDY    40  39  97 SW3       30.18R
WINNER         FAIR      39  36  89 SE3       30.19S
SIOUX FALLS    PTCLDY    43  43 100 CALM      30.17R
OMAHA          PTCLDY    51  46  83 SE9       30.22S
GRAND ISLAND   CLEAR     43  40  89 CALM      30.19R
KANSAS CITY    PTSUNNY   54  47  77 SE5       30.26R
WICHITA        PTCLDY    53  49  86 SE6       30.23R
HAYS           CLEAR     45  39  81 SE6       30.16S
LIBERAL        CLEAR     54  48  82 S13       30.15R
GOODLAND       CLEAR     44  44 100 S7        30.12S
$$



USA.gov is the U.S. government's official web portal to all federal, state and local government web resources and services.